Zurück zum Katalog

FENGYUN 1C DEB

AktivSSO
NORAD 30247·DEBRIS·🇨🇳 China

Gestartet May 10, 1999 von Taiyuan Satellite Launch Center

Loading…

Nächste Überflüge (nächste 24 Stunden)

TLE

AktuellSource: Space-Track

Epoche: Sep 14, 2026, 00:13 UTC

1 30247U 99025XG  26257.00970999  .00007521  00000-0  10835-2 0  9990
2 30247  98.2632 170.3748 0168693 208.6811 283.9634 14.67307727 13099

Verfolge FENGYUN 1C DEB in Echtzeit mit AllMySat

Download on the App Store